Weather History for ROIG - March, 2013

Change the Weather History Date:

Tuesday, March 5, 2013

  Actual Average Record
Temperature  
Mean Temperature 64 °F -  
Max Temperature 72 °F 72 °F 80 °F (2012)
Min Temperature 58 °F 65 °F 51 °F (2005)
Growing Degree Days 14 (Base 50)    
Moisture  
Dew Point 48 °F    
Average Humidity 49    
Maximum Humidity 60    
Minimum Humidity 34    
Precipitation  
Precipitation 0.00 in - - ()
Sea Level Pressure  
Sea Level Pressure 30.25 in    
Wind  
Wind Speed 9 mph ()    
Max Wind Speed 14 mph    
Max Gust Speed -    
Visibility 7.7 miles    
Events      
Averages and records for this station are not official NWS values.
T = Trace of Precipitation, MM = Missing Value Source: Averaged Metar Reports

Daily Weather History Graph

Daily Weather History Graph

Search for Another Location

Airport or City:

Trip Planner

Search our weather history database for the weather conditions in past years. The results will help you decide how hot, cold, wet, or windy it might be!

Date:

Astronomy

Mar. 05, 2013 Rise Set
Actual Time 7:02 AM JST 6:47 PM JST
Civil Twilight 6:39 AM JST 7:10 PM JST
Nautical Twilight 6:13 AM JST 7:36 PM JST
Astronomical Twilight 5:46 AM JST 8:03 PM JST
Moon 1:11 AM JST (3/5) 12:19 PM JST (3/5)
Length of Visible Light 12h 30m
Length of Day
11h 45m
Waning Gibbous, 48% of the Moon is Illuminated
Mar 5
Waning Gibbous
Mar 12
New
Mar 20
First Quarter
Mar 27
Full
Apr 3
Last Quarter

Hourly Weather History & Observations

Time (JST) Temp. Dew Point Humidity Pressure Visibility Wind Dir Wind Speed Gust Speed Precip Events Conditions
12:00 AM 60 °F 46 °F 49% 30.28 in - North 8.1 mph - -  
3:00 AM 59 °F 46 °F 51% 30.25 in 12 mi NNE 6.9 mph - -   Scattered Clouds
6:00 AM 61 °F 45 °F 44% 30.26 in 12 mi NE 9.2 mph - -   Partly Cloudy
6:00 AM 60.8 °F 46.4 °F 59% 30.24 in 6.2 mi NE 6.9 mph - N/A   Partly Cloudy
7:00 AM 60.8 °F 46.4 °F 59% 30.27 in 6.2 mi ENE 8.1 mph - N/A   Partly Cloudy
8:00 AM 62.6 °F 46.4 °F 55% 30.27 in - NE 9.2 mph - N/A   Clear
9:00 AM 67 °F 46 °F 35% 30.32 in 9 mi ENE 13.8 mph - -   Mostly Cloudy
9:00 AM 68.0 °F 46.4 °F 46% 30.30 in 6.2 mi ENE 11.5 mph - N/A   Partly Cloudy
10:00 AM 66.2 °F 46.4 °F 49% 30.30 in - ENE 10.4 mph - N/A   Clear
11:00 AM 68.0 °F 48.2 °F 49% 30.30 in 6.2 mi ENE 11.5 mph - N/A   Partly Cloudy
12:00 PM 70 °F 48 °F 34% 30.30 in 9 mi East 13.8 mph - -   Mostly Cloudy
12:00 PM 68.0 °F 48.2 °F 49% 30.27 in 6.2 mi East 12.7 mph - N/A   Scattered Clouds
1:00 PM 69.8 °F 48.2 °F 46% 30.27 in - ENE 12.7 mph - N/A   Clear
2:00 PM 69.8 °F 48.2 °F 46% 30.24 in - ENE 10.4 mph - N/A   Clear
3:00 PM 71 °F 49 °F 35% 30.23 in 9 mi East 12.7 mph - -   Mostly Cloudy
3:00 PM 69.8 °F 50.0 °F 49% 30.21 in - ENE 11.5 mph - N/A   Clear
4:00 PM 68.0 °F 50.0 °F 52% 30.21 in 6.2 mi ENE 11.5 mph - N/A   Mostly Cloudy
5:00 PM 68.0 °F 51.8 °F 56% 30.21 in 6.2 mi NE 12.7 mph - N/A   Scattered Clouds
6:00 PM 68 °F 51 °F 45% 30.22 in 9 mi NE 11.5 mph - -   Mostly Cloudy
6:00 PM 66.2 °F 51.8 °F 60% 30.21 in 6.2 mi ENE 10.4 mph - N/A   Mostly Cloudy
7:00 PM 66.2 °F 51.8 °F 60% 30.21 in 6.2 mi NE 9.2 mph - N/A   Mostly Cloudy
8:00 PM 66.2 °F 51.8 °F 60% 30.21 in 6.2 mi ENE 10.4 mph - N/A   Mostly Cloudy
9:00 PM 66 °F 50 °F 46% 30.25 in 9 mi ENE 11.5 mph - -   Mostly Cloudy